GFSNIL_sfc_thetae_000.txt.gz
Theta_e
309 305 304 303 301 300 300 301 302 302 302 301 300 299 299 297 298 297 297 297 296 294
306 305 304 302 302 301 302 301 301 300 299 300 299 298 296 295 294 294 294 295 294 292
303 305 303 303 301 301 301 300 299 299 298 298 298 297 296 294 295 294 293 294 294 293
303 303 302 301 300 299 298 298 297 297 296 296 295 295 295 293 293 292 291 292 293 292
302 301 300 299 298 297 296 297 296 295 294 294 294 294 293 292 292 291 290 291 290 290
300 298 297 297 296 296 295 295 294 292 291 290 290 289 289 289 289 288 287 287 287 288
299 296 295 295 294 294 294 292 291 290 290 290 289 289 288 288 286 285 285 285 285 286
298 296 296 295 294 293 292 291 290 289 289 289 288 286 284 284 283 283 283 283 284 285
299 297 295 294 293 292 290 289 289 288 288 287 288 284 283 282 280 282 281 280 282 283
296 294 295 294 292 290 288 288 288 288 288 287 285 284 283 282 280 280 280 280 281 282
296 294 294 293 291 290 288 287 287 287 287 285 286 286 285 282 279 279 279 280 280 280
295 293 292 291 290 288 287 287 287 287 285 284 284 286 285 282 279 279 278 280 280 281
293 293 291 291 289 288 287 287 286 285 284 285 283 285 284 282 278 277 278 279 280 281
293 291 291 290 288 287 286 285 284 283 283 283 283 282 283 282 279 277 277 277 277 279

GFSNIL_sfc_thetae_003.txt.gz
Theta_e
300 299 298 298 298 298 297 296 298 297 297 297 296 295 294 293 293 294 293 292 293 292
302 301 300 299 297 296 297 299 297 296 296 295 295 295 294 292 291 292 291 291 291 292
302 302 301 297 296 296 295 296 295 294 294 293 293 293 292 291 290 290 289 291 290 290
300 298 297 296 294 294 294 294 294 293 292 292 291 291 291 290 290 289 289 289 289 289
298 297 295 294 293 293 292 293 292 291 289 289 288 287 288 288 289 288 286 285 285 285
298 295 292 291 292 291 291 290 289 288 288 287 287 286 286 285 285 284 283 283 283 283
298 296 292 293 292 291 290 288 287 287 287 287 287 286 285 284 282 281 282 282 282 282
297 294 294 293 292 292 290 288 286 286 286 286 285 284 281 281 280 279 280 280 281 281
295 294 294 294 293 291 288 286 285 285 285 284 285 283 283 280 278 279 279 278 279 280
294 293 294 294 292 288 286 284 284 284 284 283 280 283 282 282 279 278 277 277 278 279
292 292 294 294 289 287 285 283 282 282 283 282 283 285 285 282 278 278 279 279 279 279
291 291 291 290 288 287 284 282 282 283 282 281 281 285 284 282 278 279 278 280 280 279
290 290 290 290 288 284 283 283 283 282 282 284 280 284 284 282 276 274 276 278 278 280
291 290 289 288 285 283 281 282 280 280 280 281 281 280 282 281 276 276 277 276 276 278

GFSNIL_sfc_thetae_006.txt.gz
Theta_e
298 299 299 299 295 297 297 296 295 295 294 294 294 293 292 291 290 290 290 288 289 289
301 301 300 301 298 297 295 296 294 294 293 292 292 292 291 289 289 288 287 287 288 288
301 300 299 296 294 293 293 294 293 292 291 291 291 290 290 289 288 287 287 288 287 287
297 296 296 294 294 293 293 294 294 292 290 289 288 288 287 287 288 287 286 285 284 284
297 296 294 293 292 292 292 292 291 291 289 287 286 285 285 285 285 283 282 282 282 282
297 296 292 292 291 291 290 291 290 289 287 286 286 285 284 284 283 281 281 281 280 280
292 295 291 290 291 293 293 293 289 287 287 287 286 285 283 282 280 280 280 281 280 280
293 292 292 293 293 293 293 293 288 286 286 285 285 283 281 281 280 279 280 280 279 279
293 293 292 292 292 291 291 287 286 285 284 283 284 284 284 282 279 279 278 277 278 278
293 292 291 292 291 291 287 288 284 283 283 281 281 284 285 284 280 278 277 277 277 278
290 290 290 290 289 289 287 285 282 281 282 281 282 285 285 283 279 278 278 279 278 277
289 289 288 289 288 288 285 281 282 282 281 280 280 284 284 282 278 277 277 278 278 278
289 289 288 287 286 285 282 282 282 281 280 282 278 282 282 280 274 272 275 277 278 279
288 287 287 286 283 282 281 281 279 279 278 279 279 278 280 280 275 274 275 275 276 277

GFSNIL_sfc_thetae_009.txt.gz
Theta_e
298 297 299 300 299 297 295 295 294 293 293 293 293 291 290 289 288 287 286 285 286 286
298 298 298 298 296 294 293 295 293 294 294 294 291 291 290 288 287 287 286 285 285 285
298 297 297 296 294 293 292 295 295 295 293 292 291 291 288 287 286 287 286 286 285 284
295 295 295 293 292 292 292 294 294 293 291 290 288 287 286 285 286 286 285 282 282 281
293 293 292 292 291 292 292 290 290 291 292 289 287 286 285 285 285 283 281 281 280 280
290 291 292 291 290 291 290 291 292 292 288 286 286 285 284 284 282 281 281 280 280 279
291 291 289 288 289 290 291 291 290 291 287 286 286 285 284 282 280 280 281 281 280 279
291 291 290 290 290 290 290 291 290 287 285 285 284 283 281 281 280 279 279 280 280 279
290 291 291 291 290 292 291 290 284 288 285 282 283 285 285 283 279 279 279 277 278 279
289 290 289 289 290 289 288 286 285 282 281 281 281 285 285 285 281 280 278 278 278 278
288 288 288 288 288 287 287 286 281 281 281 281 282 285 284 283 280 278 278 277 277 277
288 287 287 286 286 286 285 282 281 282 281 280 280 283 282 280 276 276 276 277 277 277
287 287 286 285 284 284 280 281 281 281 280 281 278 281 281 279 274 270 274 275 276 278
286 284 284 283 282 281 281 281 279 279 278 278 278 277 279 279 273 273 275 275 275 276

GFSNIL_sfc_thetae_012.txt.gz
Theta_e
295 295 296 296 296 295 294 294 293 292 292 292 293 293 293 291 288 288 287 285 285 285
296 296 296 296 295 294 293 294 292 291 293 292 294 292 290 288 287 287 287 286 285 285
293 293 293 293 292 292 292 292 294 294 293 293 291 290 290 289 286 286 285 286 284 283
291 291 291 291 291 290 291 292 292 293 290 289 289 288 286 285 284 284 284 283 282 281
290 290 290 290 290 290 290 290 290 289 291 291 287 285 283 283 283 283 282 281 281 281
289 289 289 289 289 289 288 288 290 292 291 288 286 284 284 283 283 281 281 281 280 280
288 289 289 288 288 288 288 290 292 290 289 286 285 284 283 282 281 280 281 281 280 279
289 289 289 289 289 289 289 292 292 287 285 284 284 284 281 281 280 280 279 280 280 280
289 289 288 289 288 288 288 288 287 285 284 282 283 285 285 284 281 280 279 279 279 279
288 288 287 287 287 287 286 285 286 283 281 280 281 285 285 284 281 279 278 277 277 277
287 286 286 286 286 285 285 285 283 280 280 281 283 284 284 282 278 277 277 277 276 276
286 286 285 285 284 283 283 282 281 281 281 281 279 282 282 280 277 276 276 277 277 277
286 285 284 282 282 282 280 281 281 281 280 280 278 280 280 279 274 271 274 276 277 277
285 284 283 282 281 280 280 280 278 279 278 278 278 277 279 280 273 273 275 275 275 276

GFSNIL_sfc_thetae_018.txt.gz
Theta_e
302 300 301 301 300 300 299 300 302 303 305 305 304 300 300 301 299 298 296 295 295 294
301 301 301 301 301 300 300 299 301 304 304 304 303 302 300 300 298 298 297 296 295 294
301 301 301 301 299 299 299 299 300 301 302 301 302 302 299 299 298 296 296 295 294 293
301 301 300 300 299 298 299 299 298 299 300 300 299 298 299 298 297 295 294 294 292 293
300 300 299 299 298 299 298 298 298 298 298 298 297 298 297 297 295 293 292 292 292 291
299 298 298 298 298 298 297 297 298 298 297 297 297 297 296 294 293 293 292 292 291 290
298 298 298 298 297 297 297 297 297 297 297 297 295 294 293 293 292 292 291 291 290 290
298 298 298 298 297 297 297 296 296 296 296 296 294 293 292 292 291 291 290 290 288 287
297 297 297 297 296 296 295 295 295 295 295 295 293 286 286 286 290 289 288 286 286 286
296 295 295 295 295 295 294 295 294 295 295 293 292 286 284 283 288 287 286 285 284 284
294 294 294 295 294 294 294 293 293 293 292 292 289 284 282 282 287 286 285 284 284 284
293 293 293 293 293 294 293 293 292 292 291 291 290 283 281 282 286 285 284 284 284 282
292 293 292 292 293 294 293 291 291 290 291 285 288 282 281 282 286 284 283 284 283 280
292 292 292 293 293 293 292 291 290 289 289 288 287 286 280 280 284 284 282 282 282 282

GFSNIL_sfc_thetae_021.txt.gz
Theta_e
303 302 302 302 302 301 300 300 301 302 303 304 304 304 303 301 302 301 299 297 296 295
302 303 303 302 303 301 301 300 300 301 301 302 303 303 303 302 301 299 298 298 297 295
303 303 304 303 301 300 300 300 300 299 300 300 301 302 302 300 300 298 298 297 295 294
302 302 303 302 301 300 300 299 299 299 298 298 298 299 298 298 298 297 297 296 294 294
302 302 301 301 301 300 299 299 298 298 298 298 298 297 297 297 297 296 294 294 293 292
301 301 301 300 300 299 299 298 298 297 297 297 297 296 296 294 294 294 293 293 292 291
301 301 301 300 299 299 298 297 297 297 297 297 296 295 295 294 294 293 293 292 292 291
301 301 300 299 299 299 298 297 297 296 296 296 296 294 294 293 293 292 291 291 290 289
300 299 299 298 298 297 297 296 296 295 295 295 295 287 286 286 290 290 289 288 288 288
298 298 297 296 295 295 296 296 295 294 294 294 293 287 285 283 288 289 289 287 286 285
297 295 295 294 295 295 296 295 294 294 293 293 290 285 283 283 287 289 288 287 286 285
294 293 293 293 294 294 295 294 294 293 292 291 290 284 283 282 287 287 286 286 286 284
293 293 292 293 293 294 294 293 293 292 292 287 291 284 283 282 286 285 285 285 285 282
293 293 293 293 293 293 293 293 292 291 291 291 290 288 283 282 284 285 284 283 283 284

GFSNIL_sfc_thetae_024.txt.gz
Theta_e
304 302 302 303 300 299 298 298 299 299 299 299 301 300 300 298 297 297 296 295 294 292
303 302 302 302 301 300 299 298 298 298 298 298 298 299 297 298 298 298 296 294 295 292
302 304 303 302 300 298 298 298 298 298 297 297 297 297 297 297 296 295 294 296 294 293
303 303 302 301 300 298 298 298 297 297 296 296 296 296 295 294 294 294 293 293 293 293
303 302 301 300 299 299 297 298 296 296 296 296 296 295 294 293 293 292 291 291 290 290
302 301 301 299 299 299 297 297 296 296 295 295 295 295 294 293 292 291 290 290 289 289
301 301 300 299 299 298 298 296 295 295 295 295 294 294 294 292 290 290 290 290 289 288
301 300 299 300 299 298 297 296 296 295 294 294 294 292 291 290 289 288 288 288 288 286
301 299 299 299 297 297 296 295 295 294 294 293 292 288 287 286 285 287 286 284 284 284
299 298 297 296 295 294 294 295 294 294 293 292 288 287 286 284 284 284 284 283 283 283
298 296 295 294 293 294 294 293 293 292 292 291 288 287 285 284 281 284 284 283 283 281
295 293 293 292 292 293 292 292 292 292 291 290 285 286 285 283 282 283 283 284 283 283
293 292 292 292 292 292 292 292 292 291 290 288 285 285 284 283 281 281 281 282 282 281
293 292 292 292 291 291 291 290 288 286 287 287 287 283 285 284 281 280 280 280 279 280

GFSNIL_sfc_thetae_027.txt.gz
Theta_e
298 297 297 297 296 297 296 295 294 295 294 295 295 295 295 295 295 294 293 292 291 291
297 298 298 297 297 297 296 296 295 295 294 294 294 294 293 293 295 294 293 294 295 292
297 299 298 298 298 295 295 295 294 293 293 293 293 293 293 292 292 291 291 293 292 292
297 299 299 298 297 296 296 294 294 293 293 293 293 293 292 291 291 292 291 291 291 290
298 301 300 299 298 296 294 294 293 293 294 294 293 292 292 291 290 289 289 289 288 288
300 300 299 298 297 296 294 293 293 293 293 293 293 292 292 292 290 289 289 288 287 286
299 299 299 297 296 295 295 293 292 292 293 293 293 293 293 291 289 289 289 289 287 286
299 300 298 297 296 296 295 294 294 294 293 293 292 291 289 288 287 286 285 285 285 284
299 298 297 296 295 295 293 293 293 292 292 291 291 288 288 286 284 285 284 282 281 282
297 296 294 293 292 291 291 292 292 292 291 290 288 288 287 285 283 283 282 281 280 281
293 293 293 292 291 291 292 291 290 290 291 290 288 288 287 284 281 282 282 281 281 280
292 292 292 291 291 291 290 289 290 291 290 288 286 287 286 283 280 281 281 282 281 281
292 292 291 291 291 290 290 290 290 288 288 288 285 286 286 283 279 280 279 280 280 282
292 292 292 290 290 289 288 287 285 285 285 285 283 283 286 286 280 279 279 279 278 278

GFSNIL_sfc_thetae_030.txt.gz
Theta_e
298 297 297 296 298 297 296 295 295 295 294 293 293 292 292 292 293 293 291 291 291 291
299 298 298 297 297 297 296 296 296 294 292 295 293 292 291 291 292 292 292 291 291 291
299 299 298 298 297 297 296 296 295 294 294 292 292 291 291 291 291 290 290 291 290 290
298 298 299 299 297 297 296 296 295 293 294 292 292 291 290 290 290 290 290 289 289 290
298 300 299 298 297 296 295 295 293 293 292 292 292 292 290 290 290 290 288 289 288 288
298 299 298 298 296 295 293 293 292 292 292 292 292 292 292 291 290 288 288 289 287 286
299 299 296 297 294 294 293 294 292 292 292 293 291 292 292 290 288 288 288 288 287 285
299 298 297 294 293 294 293 293 293 292 292 292 292 291 290 289 287 285 284 285 284 283
299 298 296 295 293 291 292 292 292 291 291 290 291 290 290 287 284 285 284 282 281 281
296 294 293 293 292 291 291 292 291 290 290 290 290 289 289 287 283 282 281 281 280 281
293 292 292 292 292 292 291 290 289 289 290 289 289 288 288 286 281 281 282 281 280 280
291 292 293 292 291 291 290 289 289 289 289 288 286 288 287 284 280 281 281 282 281 281
293 292 291 291 290 290 289 288 288 287 287 287 284 287 287 284 279 280 280 280 280 283
293 292 292 291 289 287 286 285 283 283 283 283 284 283 287 287 280 280 280 280 279 279

GFSNIL_sfc_thetae_036.txt.gz
Theta_e
314 309 307 302 298 297 295 296 297 296 297 297 296 294 293 292 290 291 291 290 290 290
309 307 305 301 300 297 296 296 295 298 297 296 295 294 293 292 291 291 291 291 290 289
305 306 304 301 298 296 295 296 298 297 295 295 294 293 292 291 291 290 289 289 289 288
301 303 303 301 298 297 296 297 297 295 295 294 293 292 290 290 290 289 289 288 289 288
301 301 300 298 296 296 296 297 295 295 293 293 292 291 290 290 290 289 288 288 287 288
298 298 296 295 296 296 295 294 293 294 293 293 292 291 291 289 289 288 288 287 286 286
298 298 297 296 295 295 295 293 292 293 293 292 292 292 291 290 288 288 287 287 286 286
298 297 295 295 295 294 294 293 293 293 293 293 293 291 290 289 288 286 285 285 285 285
296 295 295 295 293 292 293 293 294 293 292 292 292 290 290 289 286 285 284 283 283 282
294 293 292 292 293 293 293 293 292 292 291 291 290 290 290 290 285 284 283 282 282 281
294 294 294 293 292 292 292 292 291 291 290 289 289 288 289 288 285 283 282 282 281 281
294 293 293 292 292 292 292 291 290 290 288 286 284 287 288 287 283 281 281 282 282 281
294 293 292 291 291 291 291 290 288 286 285 285 283 286 287 287 281 280 282 282 282 285
294 293 293 292 290 288 287 285 283 283 283 282 283 283 287 288 282 282 282 282 282 282

GFSNIL_sfc_thetae_039.txt.gz
Theta_e
319 317 316 312 307 304 304 302 302 302 302 302 301 300 297 298 300 301 301 300 300 300
319 317 315 310 306 306 303 301 302 303 303 302 298 299 298 299 299 300 301 301 301 300
320 319 314 308 306 306 303 302 301 302 302 299 300 296 299 299 299 299 300 300 299 298
316 316 312 308 307 304 303 302 301 302 298 297 299 299 298 298 297 297 298 298 297 297
313 310 308 307 306 304 303 302 301 300 297 297 298 298 297 296 296 296 296 296 296 295
308 308 309 308 307 304 302 301 298 296 296 298 298 297 296 295 297 295 296 296 295 295
306 307 306 303 301 299 299 297 298 297 296 296 295 297 296 296 296 295 295 295 295 295
304 303 301 300 297 297 296 296 295 296 297 296 296 296 295 295 296 295 294 294 294 294
300 299 297 296 295 294 294 296 297 294 295 294 295 291 291 291 294 294 293 293 294 293
297 294 294 295 295 294 295 295 294 294 296 295 294 291 291 290 292 293 293 293 293 292
296 295 295 295 296 294 295 295 295 296 294 293 293 289 289 288 292 292 292 293 293 292
296 296 296 294 294 296 295 296 294 292 292 293 293 288 287 288 291 291 291 291 291 290
298 297 296 296 294 293 292 292 293 293 293 290 291 288 287 288 290 289 289 290 289 286
295 294 293 293 294 294 293 292 291 290 291 291 290 290 287 288 289 289 288 288 288 289

GFSNIL_sfc_thetae_042.txt.gz
Theta_e
327 326 325 326 322 318 312 312 310 309 309 307 307 306 304 302 301 304 303 304 303 302
326 324 323 324 322 316 312 309 308 308 305 306 305 304 301 301 300 303 304 304 303 302
326 325 324 323 320 313 311 309 307 307 306 305 303 301 297 297 302 302 303 301 301 301
325 325 324 323 320 316 313 308 305 304 305 303 300 299 299 301 300 301 299 301 299 299
325 322 320 317 316 313 309 304 306 306 304 300 302 300 299 299 299 300 299 299 299 298
320 316 314 312 310 307 305 306 305 304 300 300 301 299 299 299 298 299 300 299 299 298
317 317 317 314 311 308 306 304 300 300 300 299 298 298 298 298 298 297 299 299 299 299
314 313 311 309 309 307 308 303 299 298 297 299 298 298 299 298 295 297 298 299 299 299
308 306 305 303 302 298 297 297 297 298 297 297 298 293 292 292 294 297 296 296 297 298
304 301 300 298 297 296 298 296 297 297 299 298 298 292 292 291 295 295 296 296 296 295
302 300 300 299 299 297 298 297 298 298 298 300 298 291 291 289 294 295 295 295 295 295
302 301 301 300 300 301 301 300 299 297 294 293 293 292 289 289 294 293 293 294 294 294
302 301 300 300 297 294 294 294 295 297 297 294 296 292 289 290 293 292 292 293 293 289
297 294 296 297 297 297 297 296 295 294 295 295 294 294 290 289 291 292 292 292 292 293

GFSNIL_sfc_thetae_045.txt.gz
Theta_e
332 331 329 326 325 323 322 321 322 318 313 312 312 310 308 307 304 303 304 304 305 304
331 329 329 327 327 323 321 320 317 312 309 309 307 308 308 304 300 305 304 302 305 303
329 328 328 327 325 322 321 316 311 309 308 308 308 308 305 303 302 301 304 302 302 303
328 328 327 325 324 322 318 313 311 310 307 305 306 304 302 300 300 302 301 301 301 302
328 328 324 323 321 320 317 316 312 308 304 306 304 301 299 300 300 300 299 299 300 300
325 322 320 318 316 313 313 310 306 305 306 302 301 300 299 299 299 299 299 299 300 300
320 318 317 314 312 309 307 306 307 305 301 301 300 299 299 298 297 298 299 298 301 301
319 319 317 316 313 311 308 305 302 301 301 299 298 298 297 298 299 299 298 297 299 300
314 312 311 310 308 307 306 303 301 297 298 298 299 295 293 294 299 296 296 295 298 299
308 306 304 303 302 301 301 301 300 299 299 299 301 293 292 291 295 295 295 297 296 296
305 303 303 303 302 302 301 301 300 300 301 300 297 292 292 291 295 296 296 296 295 295
305 304 303 302 301 302 301 301 300 297 297 297 299 292 291 292 295 294 294 294 294 294
304 303 302 301 300 300 299 299 299 298 298 295 296 292 290 291 293 292 292 293 294 291
302 301 301 300 299 298 297 297 297 295 296 296 294 294 290 289 290 290 288 289 290 292

GFSNIL_sfc_thetae_051.txt.gz
Theta_e
324 323 323 321 319 320 321 320 320 320 318 316 315 311 309 307 305 305 303 301 301 303
323 323 323 321 321 320 317 316 316 318 315 314 310 308 307 305 304 303 300 299 301 300
324 321 322 322 319 319 319 316 315 315 312 310 307 306 304 303 301 300 300 301 299 300
322 320 322 322 321 320 317 314 313 310 309 307 305 304 302 301 300 300 299 299 299 299
323 322 321 320 320 319 316 312 310 309 308 305 304 303 301 299 299 299 298 298 299 299
323 323 320 319 317 315 311 310 309 308 306 304 303 302 300 298 299 299 298 298 298 298
318 316 315 313 311 310 311 307 306 305 304 303 301 299 299 299 298 298 298 298 297 297
314 313 312 310 308 307 306 304 303 302 300 299 299 299 298 298 297 296 295 296 297 296
314 313 311 308 307 305 302 301 299 298 298 297 298 294 294 296 295 295 295 293 295 295
310 308 308 307 304 299 296 295 294 293 294 294 295 293 293 292 294 294 294 293 292 292
303 301 301 300 298 296 295 293 293 293 294 294 294 292 292 291 293 290 290 290 290 287
300 299 298 297 295 296 295 294 294 294 293 294 294 292 291 290 289 288 286 288 286 286
301 299 298 297 296 295 297 297 295 294 294 290 287 288 289 287 282 281 280 282 284 285
299 298 298 297 296 295 294 293 289 288 288 286 285 285 285 284 280 279 279 279 279 279

GFSNIL_sfc_thetae_057.txt.gz
Theta_e
313 314 312 311 314 314 314 315 317 318 319 320 317 315 315 314 313 310 308 306 305 306
312 313 313 313 315 318 315 316 316 319 318 316 315 315 312 309 307 306 306 305 305 303
311 313 314 315 316 319 319 317 316 315 315 314 313 312 309 305 304 305 304 303 302 301
312 314 315 316 318 319 318 318 318 317 315 314 310 307 304 303 303 303 301 301 301 300
315 316 317 318 320 320 319 319 319 319 315 311 310 308 306 303 303 302 301 300 300 299
319 318 318 319 321 321 321 320 317 315 312 310 309 306 306 304 303 301 300 300 299 299
319 319 319 320 321 321 322 318 314 312 310 308 307 306 304 302 300 299 299 299 299 299
320 320 320 320 321 320 317 314 312 310 307 305 304 302 300 300 299 298 297 298 298 298
319 319 319 320 317 314 311 310 307 305 303 302 301 294 295 298 298 298 297 295 296 296
318 318 316 312 309 308 307 305 302 301 300 300 300 293 294 293 297 296 295 294 293 291
314 312 309 308 305 301 302 301 300 300 300 298 296 292 292 291 294 292 291 290 289 286
310 308 306 303 301 300 299 298 298 298 297 295 294 291 290 290 289 287 284 284 283 282
307 305 302 300 298 297 297 295 294 292 293 291 291 290 290 288 284 281 280 281 280 283
303 301 300 297 296 296 295 291 286 283 284 285 287 288 288 286 283 280 279 279 278 278

GFSNIL_sfc_thetae_060.txt.gz
Theta_e
312 311 309 308 308 309 310 310 312 313 315 316 316 318 319 318 317 315 313 312 311 309
309 312 312 310 308 310 311 312 312 314 315 315 315 315 316 315 313 311 309 307 306 308
309 310 312 312 311 311 313 313 313 313 314 314 314 313 312 310 307 308 304 305 306 304
310 310 310 311 312 313 314 317 317 317 317 316 314 314 313 310 306 306 304 302 303 301
311 311 310 310 312 313 315 318 318 318 318 318 315 310 309 307 307 306 303 302 302 301
310 310 310 311 312 314 316 318 317 318 317 316 313 312 310 309 307 305 303 302 301 300
310 311 311 313 314 316 318 318 318 318 318 315 311 310 308 306 304 304 303 301 301 300
314 314 315 316 316 317 318 318 319 318 313 310 307 306 305 304 303 301 299 299 299 299
315 316 316 317 317 317 318 319 319 314 311 306 305 297 297 300 300 299 298 297 296 296
315 315 316 317 317 318 317 313 311 308 306 304 302 294 295 294 299 297 297 296 294 291
315 316 317 315 314 311 308 308 305 305 303 301 297 293 292 292 295 294 293 293 290 287
316 315 310 309 304 302 303 302 300 299 298 297 293 292 291 291 290 287 286 285 286 285
311 308 305 303 302 300 300 296 295 294 295 293 291 290 290 289 286 284 282 282 282 283
306 304 302 299 298 296 294 290 288 286 287 288 289 289 288 288 285 283 281 280 279 280

GFSNIL_sfc_thetae_063.txt.gz
Theta_e
317 316 316 315 316 317 319 320 321 321 322 323 324 325 326 325 325 324 316 315 316 317
317 317 317 317 318 317 318 318 319 321 321 323 324 325 325 325 324 322 319 321 322 319
316 318 318 319 317 318 319 318 319 320 321 322 323 324 324 323 322 320 320 319 317 315
316 316 317 318 318 319 319 319 319 320 320 320 320 321 321 319 318 316 317 313 312 312
316 316 315 315 316 319 319 319 319 320 319 317 318 319 316 316 314 311 310 308 308 309
316 316 315 315 316 318 317 318 319 320 320 319 318 318 317 316 313 312 312 309 307 307
314 315 316 317 317 317 317 317 319 320 320 320 320 319 316 313 311 309 309 308 307 305
316 316 316 316 317 317 317 318 318 319 320 321 320 318 316 314 313 309 305 304 304 302
317 316 316 317 317 317 318 318 320 319 320 318 315 302 302 308 308 306 303 300 300 299
317 317 317 317 318 318 319 320 319 318 318 317 314 299 299 298 305 302 300 298 296 294
318 317 318 319 319 320 320 318 317 316 312 312 306 297 294 293 300 297 297 296 293 289
318 318 318 318 319 312 310 306 304 304 303 301 296 292 292 294 292 289 288 288 288 287
319 318 315 308 305 302 303 298 297 296 297 293 292 290 291 291 288 285 284 284 284 284
314 311 307 302 300 298 294 291 288 287 289 290 291 290 289 289 288 285 283 281 281 282

GFSNIL_sfc_thetae_066.txt.gz
Theta_e
319 318 320 318 318 317 319 321 321 323 324 324 326 326 327 328 327 329 328 328 328 326
321 321 322 323 322 321 320 321 323 325 322 323 325 326 326 327 326 327 329 329 328 324
323 323 323 324 323 323 324 324 325 325 324 324 324 324 325 326 326 326 328 328 325 325
323 325 325 324 324 324 324 324 323 323 323 323 323 324 325 324 324 324 325 323 320 319
323 323 323 323 324 325 325 325 324 324 322 322 323 324 324 324 323 322 319 318 316 314
322 322 322 322 322 323 323 324 324 323 323 323 323 323 324 323 320 317 316 316 314 312
322 322 323 322 322 323 323 322 323 324 323 324 323 323 323 322 318 317 315 314 314 313
322 322 322 322 322 323 323 322 322 322 323 324 323 322 323 322 321 319 317 315 314 312
321 321 321 322 322 322 322 321 321 322 322 323 321 307 301 310 321 319 316 313 310 307
322 321 321 321 320 320 321 321 322 322 321 321 322 300 300 300 317 315 312 307 303 299
321 321 322 321 320 321 322 321 322 321 321 322 322 300 300 299 310 306 303 301 299 297
322 321 321 321 322 323 323 322 322 321 320 318 308 294 293 297 298 294 292 292 293 291
323 323 322 323 322 322 322 314 304 299 300 295 296 291 292 295 291 287 286 286 287 287
323 323 323 322 315 306 298 295 292 290 290 292 292 290 290 290 288 285 284 283 283 284

GFSNIL_sfc_thetae_069.txt.gz
Theta_e
323 322 321 322 324 322 321 319 323 323 322 325 324 326 326 327 324 327 324 326 326 326
325 323 323 323 324 325 324 320 320 322 324 326 326 326 326 325 325 323 324 328 327 327
323 324 324 325 324 324 324 324 323 322 323 323 322 323 324 323 326 325 326 327 327 327
324 324 325 326 326 326 327 326 325 324 324 323 323 324 325 324 325 324 325 326 326 326
327 326 326 326 327 328 327 328 326 327 326 325 325 325 325 324 324 324 324 325 325 323
327 327 327 328 328 328 327 327 327 326 325 325 325 325 326 325 325 324 324 324 324 323
326 326 327 328 328 328 328 327 326 326 325 325 324 324 325 324 324 324 324 324 324 321
327 327 326 327 327 327 327 326 327 326 326 326 325 324 324 324 324 322 321 323 322 318
325 325 326 327 327 327 326 326 326 325 325 325 323 309 303 312 325 321 322 320 318 318
325 325 325 326 325 325 325 326 325 325 325 324 325 304 301 299 320 322 318 316 319 315
326 325 325 325 324 325 325 324 324 325 325 325 324 302 299 297 318 321 321 320 317 310
326 325 325 324 324 325 325 324 324 324 323 322 323 298 295 298 311 300 293 294 294 294
326 325 325 326 325 326 325 324 322 311 303 296 306 295 296 298 294 289 286 286 288 288
325 326 326 326 326 326 319 303 295 292 291 291 291 291 292 292 289 286 285 285 284 285

GFSNIL_sfc_thetae_072.txt.gz
Theta_e
321 320 320 319 317 316 318 319 321 322 321 321 321 321 320 319 320 319 319 318 318 318
322 322 319 320 321 320 319 319 320 321 321 319 319 319 319 319 318 319 319 318 318 319
321 322 320 320 319 322 322 321 320 320 321 320 319 319 319 318 319 319 318 319 318 318
320 322 322 321 321 321 322 322 320 319 319 319 318 319 319 319 318 317 317 318 318 319
321 321 321 321 321 322 321 322 321 320 319 319 319 319 318 317 318 317 315 317 317 318
321 321 321 321 322 322 322 321 322 321 319 319 319 318 318 318 317 317 317 317 317 317
322 322 322 322 322 322 323 321 321 321 320 320 320 320 319 319 318 318 318 318 318 318
323 324 324 323 324 323 323 323 322 322 321 321 321 321 320 320 319 318 319 319 319 319
322 323 323 323 324 324 323 323 322 322 321 320 320 309 303 311 318 318 317 317 318 318
322 321 322 323 323 322 322 322 322 321 321 320 320 304 301 300 317 318 317 317 317 315
323 322 322 322 321 322 322 321 320 320 321 320 320 302 301 298 310 315 316 316 316 312
324 323 322 321 321 321 321 320 320 320 320 319 319 301 299 298 309 312 297 294 293 296
324 323 322 322 321 321 321 320 320 316 301 294 303 292 294 298 297 290 287 286 287 288
306 310 316 321 321 320 319 301 294 290 289 289 290 290 292 293 291 287 285 284 284 285